Weather in Kaverino

Russia / Ryazan Oblast     54°09′34″N   41°46′17″E
temp.,
°C
wind,
m/s
gust,
m/s
humid.,
%
clouds,
%
prec.,
mm/h
press.,
hPa
HPBL,
m
25 february, thu
thu2500:00−18ssw5995100 0.3 1033319
03:00−16ssw61094100 0.4 1030398
06:00−14ssw61195100 1.1 1026411
09:00−12ssw71294100 2.7 1023416
12:00−8ssw71395100 1.9 1018495
15:00−1sw61196100 4.3 1014368
18:00+2wnw510100100 0.4 1013276
21:00+2wnw51099100 0.6 1013283
26 february, fri
fri2600:00+1wnw5998100 0.0 1013273
03:00+1w5996100 0.0 1014281
06:00+1wsw4999100 0.1 1012234
09:00+1wsw510100100 0.6 1011265
12:00+2w614100100 0.8 1009379
15:00+2wsw715100100 1.6 1006422
18:00+2wsw715100100 0.8 1003451
21:00+2w81696100 1.3 1003673
27 february, sat
sat2700:00+2w8159297 0.1 1003791
03:00+1w8149192 0.1 1002796
06:000w71392100 0.0 1001649
09:000w7139198 0.1 1001591
12:000w7129992 0.1 1000768
15:00+1w7139393 0.2 1001770
18:00−6nnw61191100 0.9 1003717
21:00−7nnw5993100 1.0 1007652
28 february, sun
sun2800:00−10nnw4109396 0.0 1008337
03:00−12nnw389577 0.1 1011195
06:00−13nnw389576 0.0 1013205
09:00−12nnw489367 0.0 1014395
12:00−10nnw479090 0.0 1016497
15:00−7nnw478994 0.1 1016625
18:00−8nnw4894100 0.1 1018414
21:00−10nnw3794100 0.1 1020142
1 march, mon
mon100:00−11nnw349698 0.1 102281
03:00−13nnw369685 0.1 1024103
06:00−14nnw349639 0.0 102595
09:00−12n379543 0.0 1026231
12:00−8nw239187 0.0 1027302
15:00−5wnw358993 0.1 1026570
18:00−5w3892100 0.1 1026271
21:00−7wsw499397 0.1 1025191